Location: Athens-Covington-Pier
(33.9360°N, 83.4200°W)
Time: 09:51:59
(UTC-04:00)

Hubble Space Telescope - Visible Passes

Search period start: 21 March 2019 00:00
Search period end: 31 March 2019 00:00
Orbit: 537 x 540 km, 28.5° (Epoch: 21 March)

Date Brightness Start Highest point End Pass type
(mag) Time Alt. Az. Time Alt. Az. Time Alt. Az.
22 Mar 3.0 21:21:26 10° SSW 21:22:32 14° S 21:22:32 14° S visible
23 Mar 2.5 21:10:27 10° SSW 21:13:02 19° SSE 21:13:02 19° SSE visible
24 Mar 2.2 20:59:35 10° SW 21:02:50 22° SSE 21:03:28 21° SSE visible
25 Mar 2.1 20:48:49 10° SW 20:52:16 26° SSE 20:53:49 20° SE visible
26 Mar 1.9 20:38:07 10° SW 20:41:43 29° SSE 20:44:06 17° ESE visible
26 Mar 3.4 22:18:43 10° WSW 22:19:27 14° WSW 22:19:27 14° WSW visible
27 Mar 1.8 20:27:28 10° SW 20:31:11 32° S 20:34:20 13° ESE visible
27 Mar 3.0 22:08:12 10° WSW 22:09:41 20° WSW 22:09:41 20° WSW visible
28 Mar 1.7 20:16:52 10° WSW 20:20:39 35° S 20:24:25 10° ESE visible
28 Mar 2.5 21:57:42 10° WSW 21:59:52 25° SW 21:59:52 25° SW visible
29 Mar 2.2 21:47:14 10° WSW 21:50:02 29° SW 21:50:02 29° SW visible
30 Mar 2.0 21:36:47 10° WSW 21:40:10 30° SSW 21:40:10 30° SSW visible
